LHX8WZ EDXW-EDLW

Flight info

Callsign LHX8WZ
Flight time N/A
Altitude 32000
Route OLDIP1A OLDIP DCT BADOS DCT OMWEG Y348 MAWEQ Z718 OSNAD M170 HMM N853 DOMEG DOMEG2A
Aircraft A319/M-SDE3FGHIRWY/LB1

Departure

Time 2026-04-29 10:34
Airport Westerland Sylt Airport (EDXW)

Arrival

Time N/A
Airport Dortmund Airport (EDLW)
Time Latitude Longitude Altitude Speed Heading
2026-04-29 10:05 54.91387 8.33122 58 ft 0 kts 269°
2026-04-29 10:07 54.91387 8.33123 58 ft 0 kts 269°
2026-04-29 10:08 54.91387 8.33122 59 ft 0 kts 269°
2026-04-29 10:27 54.91387 8.33123 58 ft 1 kts 269°
2026-04-29 10:27 54.91387 8.33146 56 ft 3 kts 269°
2026-04-29 10:27 54.91387 8.33180 58 ft 2 kts 269°
2026-04-29 10:28 54.91388 8.33208 58 ft 3 kts 240°
2026-04-29 10:28 54.91400 8.33228 55 ft 3 kts 192°
2026-04-29 10:28 54.91419 8.33230 58 ft 3 kts 167°
2026-04-29 10:28 54.91433 8.33223 52 ft 1 kts 152°
2026-04-29 10:29 54.91446 8.33211 51 ft 2 kts 152°
2026-04-29 10:29 54.91450 8.33207 52 ft 0 kts 152°
2026-04-29 10:30 54.91436 8.33220 51 ft 4 kts 152°
2026-04-29 10:31 54.91435 8.33221 51 ft 0 kts 152°
2026-04-29 10:31 54.91417 8.33235 50 ft 9 kts 156°
2026-04-29 10:32 54.91394 8.33223 57 ft 3 kts 315°
2026-04-29 10:32 54.91442 8.33189 48 ft 10 kts 344°
2026-04-29 10:32 54.91523 8.33177 56 ft 13 kts 359°
2026-04-29 10:32 54.91623 8.33177 51 ft 16 kts
2026-04-29 10:33 54.91732 8.33176 58 ft 16 kts 359°
2026-04-29 10:33 54.91845 8.33213 58 ft 18 kts 20°
2026-04-29 10:33 54.91862 8.33377 56 ft 19 kts 140°
2026-04-29 10:33 54.91612 8.33692 60 ft 97 kts 144°
2026-04-29 10:34 54.90767 8.34733 239 ft 182 kts 144°
2026-04-29 10:34 54.89684 8.36014 1375 ft 189 kts 143°
2026-04-29 10:34 54.88557 8.37409 2529 ft 208 kts 142°
2026-04-29 10:34 54.87304 8.38978 3609 ft 238 kts 142°
2026-04-29 10:35 54.85871 8.40774 3955 ft 257 kts 142°
2026-04-29 10:35 54.84416 8.42581 4035 ft 257 kts 142°
2026-04-29 10:35 54.82949 8.44395 4456 ft 271 kts 142°
2026-04-29 10:35 54.81414 8.46289 5973 ft 268 kts 142°
2026-04-29 10:36 54.79876 8.48185 7378 ft 274 kts 141°
2026-04-29 10:36 54.78303 8.50122 8659 ft 281 kts 141°
2026-04-29 10:36 54.76690 8.52107 9930 ft 288 kts 141°
2026-04-29 10:36 54.75031 8.54145 11136 ft 295 kts 140°
2026-04-29 10:37 54.73336 8.56227 12336 ft 301 kts 139°
2026-04-29 10:37 54.71615 8.58341 13557 ft 306 kts 139°
2026-04-29 10:37 54.69864 8.60495 14708 ft 312 kts 138°
2026-04-29 10:37 54.68079 8.62689 15739 ft 318 kts 138°
2026-04-29 10:38 54.66402 8.64741 16696 ft 323 kts 138°